Weather History for KHKY - July, 2013

Change the Weather History Date:

Sunday, July 28, 2013

  Actual Average Record
Temperature  
Mean Temperature 76 °F -  
Max Temperature 82 °F 87 °F 105 °F (1952)
Min Temperature 69 °F 68 °F 53 °F (1962)
Cooling Degree Days 10    
Growing Degree Days 26 (Base 50)    
Moisture  
Dew Point 67 °F    
Average Humidity 80    
Maximum Humidity 93    
Minimum Humidity 56    
Precipitation  
Precipitation 0.00 in - - ()
Sea Level Pressure  
Sea Level Pressure 29.94 in    
Wind  
Wind Speed 1 mph (SSW)    
Max Wind Speed 12 mph    
Max Gust Speed -    
Visibility 8 miles    
Events Rain , Thunderstorm    
Averages and records for this station are not official NWS values.
T = Trace of Precipitation, MM = Missing Value Source: NWS Daily Summary

Daily Weather History Graph

Daily Weather History Graph

Search for Another Location

Airport or City:

Trip Planner

Search our weather history database for the weather conditions in past years. The results will help you decide how hot, cold, wet, or windy it might be!

Date:

Astronomy

Jul. 28, 2013 Rise Set
Actual Time 6:30 AM EDT 8:33 PM EDT
Civil Twilight 6:02 AM EDT 9:01 PM EDT
Nautical Twilight 5:27 AM EDT 9:35 PM EDT
Astronomical Twilight 4:50 AM EDT 10:13 PM EDT
Moon No Moon Rise 12:55 PM EDT (7/28)
Length of Visible Light 14h 59m
Length of Day
14h 02m
Waning Gibbous, 61% of the Moon is Illuminated
Jul 28
Waning Gibbous
Jul 29
Last Quarter
Aug 6
New
Aug 14
First Quarter
Aug 20
Full

Hourly Weather History & Observations

Time (EDT) Temp. Heat Index Dew Point Humidity Pressure Visibility Wind Dir Wind Speed Gust Speed Precip Events Conditions
12:53 AM 70.0 °F - 66.0 °F 87% 29.91 in 9.0 mi Calm Calm - 0.00 in Rain Light Rain
1:03 AM 69.8 °F - 66.2 °F 88% 29.97 in 9.0 mi Calm Calm - 0.00 in Rain Light Rain
1:53 AM 70.0 °F - 66.9 °F 90% 29.91 in 6.0 mi Calm Calm - 0.00 in   Overcast
2:44 AM 69.8 °F - 66.2 °F 88% 29.96 in 6.0 mi Calm Calm - N/A   Overcast
2:53 AM 70.0 °F - 66.9 °F 90% 29.89 in 6.0 mi Calm Calm - N/A   Overcast
3:53 AM 70.0 °F - 66.9 °F 90% 29.89 in 4.0 mi Calm Calm - N/A   Overcast
4:22 AM 69.8 °F - 66.2 °F 88% 29.95 in 4.0 mi Calm Calm - N/A   Overcast
4:53 AM 70.0 °F - 66.9 °F 90% 29.90 in 5.0 mi Calm Calm - N/A   Overcast
5:02 AM 69.8 °F - 66.2 °F 88% 29.96 in 5.0 mi Calm Calm - N/A   Overcast
5:35 AM 69.8 °F - 66.2 °F 88% 29.97 in 5.0 mi Calm Calm - N/A   Overcast
5:50 AM 69.8 °F - 66.2 °F 88% 29.97 in 6.0 mi Calm Calm - N/A   Overcast
5:53 AM 70.0 °F - 66.9 °F 90% 29.91 in 6.0 mi Calm Calm - N/A   Overcast
6:53 AM 69.1 °F - 66.9 °F 93% 29.92 in 4.0 mi SSW 3.5 mph - N/A   Overcast
7:53 AM 69.1 °F - 66.0 °F 90% 29.94 in 5.0 mi SSW 3.5 mph - N/A   Overcast
8:18 AM 69.8 °F - 66.2 °F 88% 30.00 in 7.0 mi SSW 5.8 mph - N/A   Overcast
8:53 AM 71.1 °F - 66.0 °F 84% 29.94 in 9.0 mi South 4.6 mph - N/A   Partly Cloudy
9:53 AM 73.0 °F - 66.0 °F 79% 29.95 in 9.0 mi SW 4.6 mph - N/A   Mostly Cloudy
10:53 AM 75.9 °F - 66.9 °F 74% 29.94 in 10.0 mi Calm Calm - N/A   Mostly Cloudy
11:05 AM 75.2 °F - 66.2 °F 73% 30.00 in 10.0 mi Calm Calm - N/A   Partly Cloudy
11:53 AM 78.1 °F - 66.9 °F 68% 29.95 in 10.0 mi West 4.6 mph - N/A   Partly Cloudy
12:53 PM 79.0 °F - 66.9 °F 66% 29.94 in 10.0 mi SW 5.8 mph - N/A   Scattered Clouds
1:53 PM 79.0 °F - 66.0 °F 64% 29.94 in 10.0 mi Calm Calm - N/A   Mostly Cloudy
2:53 PM 82.0 °F 84.5 °F 66.9 °F 60% 29.92 in 10.0 mi SSW 4.6 mph - N/A   Partly Cloudy
3:53 PM 82.0 °F 83.8 °F 64.9 °F 56% 29.90 in 10.0 mi SSW 5.8 mph - N/A   Clear
4:53 PM 79.0 °F - 66.0 °F 64% 29.91 in 10.0 mi South 11.5 mph - N/A   Scattered Clouds
5:53 PM 78.1 °F - 66.0 °F 66% 29.91 in 10.0 mi SSW 4.6 mph - 0.00 in   Overcast
6:53 PM 81.0 °F 83.0 °F 66.0 °F 60% 29.91 in 10.0 mi SW 3.5 mph - N/A   Clear
7:53 PM 78.1 °F - 68.0 °F 71% 29.93 in 10.0 mi Calm Calm - N/A   Partly Cloudy
8:53 PM 75.0 °F - 69.1 °F 82% 29.94 in 10.0 mi Calm Calm - N/A   Partly Cloudy
9:37 PM 75.2 °F - 69.8 °F 83% 30.02 in 10.0 mi Calm Calm - N/A Thunderstorm Thunderstorm
9:53 PM 75.0 °F - 70.0 °F 84% 29.96 in 10.0 mi South 8.1 mph - N/A   Overcast
10:53 PM 75.0 °F - 66.9 °F 76% 29.97 in 10.0 mi Calm Calm - N/A   Mostly Cloudy
11:53 PM 72.0 °F - 66.0 °F 81% 29.97 in 10.0 mi Calm Calm - N/A   Partly Cloudy